Other Public Products
Issued by NWS Charleston, SC

Current Version | Previous Version | Text Only | Print | Product List | Glossary Off
Versions: 1 2 3 4 5 6 7 8 9 10 11 12 13 14 15 16 17 18 19 20 21 22 23 24 25 26 27 28 29 30 31 32 33 34 35 36 37 38 39 40 41 42 43 44 45 46 47 48 49 50

000
FPUS82 KCHS 232312
OPUCHS

TEST...KCHS/KSAV Gateway Observations...TEST
National Weather Service Charleston SC
600 PM EST TUE JAN 23 2018

NOTE: "fair" indicates few or no clouds below 12,000 feet with no
significant weather and/or obstructions to visibility.

SCZ050-WAZ558-NCZ071-TXZ119-213-PAZ071-DCZ001-FLZ074-172-MI076-
NYZ176-178-MAZ016-IL014-TNZ027-NJZ106-GAZ044-MD014-240000-

...Gateway Observations for Charleston International...

CITY           SKY/WX    TMP DP  RH WIND       PRES   REMARKS
Chas Airport   MOCLDY    68  31  25 W13       29.91R
Seattle        LGT RAIN  43  40  89 E8        29.86S
Charlotte      FAIR      56  32  40 SW12      29.88R
Dallas DFW     PTCLDY    60  16  18 N9        30.25R
Dallas Love    PTCLDY    59  18  20 N8        30.27R
Philladelphia  FAIR      54  38  54 W12       29.69R
Wash National  FAIR      55  31  39 NW13G23   29.75R
Baltimore      FAIR      51  28  41 W18G28    29.72R
Miami          FAIR      77  71  82 SE10G18   30.03R
Detroit        CLOUDY    32  25  75 W18G29    29.81R WCI  20
Newark         MOCLDY    53  37  54 W15G24    29.62R
Laguardia      MOCLDY    53  37  54 W17       29.61R
J F K          MOCLDY    53  41  63 W18       29.63R
Boston Logan   DRIZZLE   39  38  96 NW9       29.50S FOG     WCI  33
Ft. Lauderdale FAIR      76  72  87 SE8       30.02R
Chicago O`Hare CLOUDY    30  23  75 NW14      30.03R WCI  19
Chicago Midway CLOUDY    31  25  78 NW10      30.04R WCI  22
Houston Bush   MOCLDY    61  25  25 N7        30.24R
Houston Hobby  MOCLDY    61  24  24 NW8       30.23R
Nashville      CLOUDY    41  29  62 W6        30.15R
Atlanta        FAIR      52  32  46 W13       30.04R

$$

GAZ044-118-TXZ119-213-NCZ071-DCZ001-MDZ014-506-PAZ021-071-NJZ106-
NYZ176-178-MAZ106-OHZ011-021-055-MIZ076-KYZ091-ILZ014-INZ047-
MNZ060-ONZ431-240000-

...Gateway Observations for Savannah International...

CITY           SKY/WX    TMP DP  RH WIND       PRES   REMARKS
Savannah Arpt  MOCLDY    66  28  24 W14       29.97R
Atlanta        FAIR      52  32  46 W13       30.04R
Charlotte      FAIR      56  32  40 SW12      29.88R
Dallas DFW     PTCLDY    60  16  18 N9        30.25R
Houston Bush   MOCLDY    61  25  25 N7        30.24R
Wash National  FAIR      55  31  39 NW13G23   29.75R
Wash Dulles    FAIR      51  29  42 W15       29.76R
Baltimore      FAIR      51  28  41 W18G28    29.72R
Philadelphia   FAIR      54  38  54 W12       29.69R
Newark         MOCLDY    53  37  54 W15G24    29.62R
Laguardia      MOCLDY    53  37  54 W17       29.61R
J F K          MOCLDY    53  41  63 W18       29.63R
Boston         DRIZZLE   39  38  96 NW9       29.50S FOG     WCI  33
Pittsburg      LGT RAIN  38  32  79 W13G24    29.81R WCI  30
Akron          LGT SNOW  36  31  82 W15       29.80R WCI  27
Cleveland      CLOUDY    36  31  82 W20G29    29.83R WCI  25
Cincinnati     CLOUDY    38  33  82 W14G23    29.99R WCI  30
Columbus       CLOUDY    37  35  90 W17G24    29.92R WCI  28
Detroit        CLOUDY    32  25  75 W18G29    29.81R WCI  20
Chicago O`Hare CLOUDY    30  23  75 NW14      30.03R WCI  19
Minneapolis    FAIR      23  15  71 NW5       30.12R WCI  17
Indianapolis   LGT SNOW  32  31  96 NW20G26   30.02R VSB 1   WCI  20
Toronto Canada LGT RAIN  36  32  87 W21       29.55R WCI  24

$$




USA.gov is the U.S. government's official web portal to all federal, state and local government web resources and services.